Location: Unspecified
(0.0000°N, 0.0000°E)
Time: 14:21:25
(UTC+00:00)

THORAD DELTA 1 DEB - Pass Details

Date: 22 February 2026
Orbit: 1442 x 1568 km, 101.4° (Epoch: 22 February)

Event Time Altitude Azimuth Distance (km) Brightness Sun altitude
Exits shadow 20:47:35 52° 173° (S) 1,883 ? -37.9°
Drops below altitude 10° 20:53:55 10° 189° (S) 3,738 ? -39.4°
Sets 20:56:45 0° 191° (S) 4,711 ? -40.1°
